カタログに戻る

STARLINK-37938

運用中通信SSO
NORAD 69568·PAYLOAD·🇺🇸 United States

打ち上げ Jun 15, 2026 から Vandenberg Space Force Base

Loading…

次のパス (今後24時間)

TLE

最新Source: CelesTrak SupGP

元期: Sep 15, 2026, 03:11 UTC

1 69568C 26135Y   26258.13312500 -.00050357  00000+0 -15632-2 0  2587
2 69568  97.2837 285.9619 0001489  99.1271 201.8838 15.33463836    16

AllMySatでSTARLINK-37938をリアルタイム追跡

Download on the App Store